Regional Weather Roundup
Issued by NWS Newport/Morehead, NC

Current Version | Previous Version | Graphics & Text | Print | Product List | Glossary Off
Versions: 1 2 3 4 5 6 7 8 9 10 11 12 13 14 15 16 17 18 19 20 21 22 23 24 25 26 27 28 29 30 31 32 33 34 35 36 37 38 39 40 41 42 43 44 45 46 47 48 49 50

000
ASUS42 KMHX 040524
RWRMHX
WEATHER ROUNDUP FOR EASTERN NORTH CAROLINA
NATIONAL WEATHER SERVICE NEWPORT/MOREHEAD CITY NC
1200 AM EST WED MAR 04 2015

NOTE: "FAIR" INDICATES FEW OR NO CLOUDS BELOW 12,000 FEET
WITH NO SIGNIFICANT WEATHER AND/OR OBSTRUCTIONS TO VISIBILITY

NCZ015>017-031-032-045>047-102-103-040600-
NORTH COAST

CITY           SKY/WX    TMP DP  RH WIND       PRES   REMARKS
EDENTON        RAIN      42  41  97 W5        30.07F VSB 1/2
ELIZABETH CITY LGT RAIN  46  45  93 SW10      30.05F FOG
KITTY HAWK     CLOUDY    56  56 100 S10       30.04F FOG
MANTEO         FOG       52  52 100 S14       30.06F VSB 1/2

$$

NCZ045>047-081-094-103-104-040600-
CENTRAL COAST

CITY           SKY/WX    TMP DP  RH WIND       PRES   REMARKS
FRISCO         LGT RAIN  57  56  96 SW14G25   30.09F FOG
SWANQUARTER      N/A     52 N/A N/A SW12G17   30.03F

$$

NCZ095-097-098-100-101-040600-
SOUTHERN COAST

CITY           SKY/WX    TMP DP  RH WIND       PRES   REMARKS
BEAUFORT       CLOUDY    57  57 100 SW10      30.11F FOG
CEDAR ISLAND     N/A     63 N/A N/A SW9G16    30.12F
JACKSONVILLE   FOG       47  46  97 W7        30.12F VSB 1/8
PINEY ISLAND     N/A    N/A N/A N/A MISG      30.10F
WILMINGTON     FOG       45  45 100 CALM      30.13F VSB 1/2


$$

NCZ011>013-027>030-043-044-078>080-089-090>093-098-040600-
COASTAL PLAIN

CITY           SKY/WX    TMP DP  RH WIND       PRES   REMARKS
AHOSKIE        RAIN      37  37  97 CALM      30.08S
CLINTON        FOG       40  40 100 CALM      30.13F VSB 1
ELIZABETHTOWN  FOG       41  41 100 CALM      30.12F VSB 1/2
GOLDSBORO      CLOUDY    40  40 100 SW3       30.08F FOG
GREENVILLE     FOG       41  41 100 SW3       30.10F VSB 1
HAVELOCK       FOG       59  58  96 SW8       30.11F VSB 1
KENANSVILLE    FOG       41  41 100 CALM      30.11F VSB 1/2
KINSTON        CLOUDY    42  41  99 S5        30.11F FOG
NEW BERN       FOG       51  50  96 W8        30.11F VSB 1
RICHLANDS      CLOUDY    45  41  87 SW3       30.12F VSB 1/2
ROCKY MOUNT    CLOUDY    39  38  96 SW7       30.09F FOG
WASHINGTON     FOG       42  42  99 SW5       30.09F VSB 1/4
WHITEVILLE     FOG       43  42  97 CALM      30.13S VSB 1/4

$$

AMZ130-135-150-152-154-156-158-170-250-252-270-ANZ085-086-088-633-658-670-040600-
MARINE OBSERVATIONS

STATION/POSITION TIME  TEMP    WIND        PRES    WAVE   SWELL
                       AIR SEA DIR/SP/G            HT/PER HT/PER
                 (UTC) (F)     (DEG/KT/KT) (MB)    (FT/S) (FT/S)
CHESAPEAKE LIGHT 0500   42     210/ 24/ 25 1015.8
64 E VA BEACH    0450   58 57  200/ 21/ 25 1016.2    5/ 6   2/11
DUCK             0500   51 35  210/  9/ 12 1016.7
2 E DUCK         0411      35                N/A     3/ 9
10 NE DUCK       0452      37                N/A     3/ 5
OREGON INLET     0500   48 42  200/ 18/ 19 1018.2
HATTERAS CG      0500   55 44  190/  6/ 12 1019.1
CAPE LOOKOUT     0500   60     200/ 11/ 14 1019.5
BEAUFORT LAB     0500   55 44  220/  3/  7 1018.6
27 SE WRIGHTSVLE NOT AVBL
5 SE WRIGHTSVLE  NOT AVBL
225 S CAPE HAT   0450   69 72  190/ 16/ 21 1024.2    6/10   3/10
41 SE CHARLESTON 0450   69 68  170/  6/  8 1020.4    5/ 9   5/ 9

$$



USA.gov is the U.S. government's official web portal to all federal, state and local government web resources and services.